Probability
0 0 0 0 0 0 0 0 0 0 0 0 0 0 0 0 0 0 0 0 0 0 0 0 0 0 0 0 0 0 0 0 0 0 0 0 0 0 0 0 0 0 0 0
0 0 0 0 0 0 0 0 0 0 0 0 0 0 0 0 0 0 0 0 0 0 0 0 0 0 0 0 0 0 0 0 0 0 0 0 0 0 0 0 0 0 0 0
0 0 0 0 0 0 0 0 0 0 0 0 0 0 0 0 0 0 0 0 0 0 0 0 0 0 0 0 0 0 0 0 0 0 0 0 0 0 0 0 0 0 0 0
0 0 0 0 0 0 0 0 0 0 0 0 0 0 0 0 0 0 0 0 0 0 0 0 0 0 0 0 0 0 0 0 0 0 0 0 0 0 0 0 0 0 0 0
0 0 0 0 0 0 0 0 0 0 0 0 0 0 0 0 0 0 0 0 0 0 0 0 0 0 0 0 0 0 0 0 0 0 0 0 0 0 0 0 0 0 0 0
0 0 0 0 0 0 0 0 0 0 0 0 0 0 0 0 0 0 0 0 0 0 0 0 0 0 0 0 0 0 0 0 0 0 0 0 0 0 0 0 0 0 0 0
0 0 0 0 0 0 0 0 0 0 0 0 0 0 0 0 0 0 0 0 0 0 0 0 0 0 0 0 0 0 0 0 0 0 0 0 0 0 0 0 0 0 0 0
0 0 0 0 0 0 0 0 0 0 0 0 0 0 0 0 0 0 0 0 0 0 0 0 0 0 0 0 0 0 0 0 0 0 0 0 0 0 0 0 0 0 0 0
0 0 0 0 0 0 0 0 0 0 0 0 0 0 0 0 0 0 0 0 0 0 0 0 0 0 0 0 0 0 0 0 0 0 0 0 0 0 0 0 0 0 0 0
0 0 0 0 0 0 0 0 0 0 0 0 0 0 0 0 0 0 0 0 0 0 0 0 0 0 0 0 0 0 0 0 0 0 0 0 0 0 0 0 0 0 0 0
0 0 0 0 0 0 0 0 0 0 0 0 0 0 0 0 0 0 0 0 0 0 0 0 0 0 0 0 0 0 0 0 0 0 0 0 0 0 0 0 0 0 0 0
0 0 0 0 0 0 0 0 0 0 0 0 0 0 0 0 0 0 0 0 0 0 0 0 0 0 0 0 0 0 0 0 0 0 0 0 0 0 0 0 0 0 0 0
0 0 0 0 0 0 0 0 0 0 0 0 0 0 0 0 0 0 0 0 0 0 0 0 0 0 0 0 0 0 0 0 0 0 0 0 0 0 0 0 0 0 0 0
0 0 0 0 0 0 0 0 0 0 0 0 0 0 0 0 0 0 0 0 0 0 0 0 0 0 0 0 0 0 0 0 0 0 0 0 0 0 0 0 0 0 0 0
0 0 0 0 0 0 0 0 0 0 0 0 0 0 0 0 0 0 0 0 0 0 0 0 0 0 0 0 0 0 0 0 0 0 0 0 0 0 0 0 0 0 0 0
0 0 0 0 0 0 0 0 0 0 0 0 0 0 0 0 0 0 0 0 0 0 0 0 0 0 0 0 0 0 0 0 0 0 0 0 0 0 0 0 0 0 0 0
0 0 0 0 0 0 0 0 0 0 0 0 0 0 0 0 0 0 0 0 0 0 0 0 0 0 0 0 0 0 0 0 0 0 0 0 0 0 0 0 0 0 0 0
0 0 0 0 0 0 0 0 0 0 0 0 0 0 0 0 0 0 0 0 0 0 0 0 0 0 0 0 0 0 0 0 0 0 0 0 0 0 0 0 0 0 0 0
0 0 0 0 0 0 0 0 0 0 0 0 0 0 0 0 0 0 0 0 0 0 0 0 0 0 0 0 0 0 0 0 0 0 0 0 0 0 0 0 0 0 0 0
0 0 0 0 0 0 0 0 0 0 0 0 0 0 0 0 0 0 0 0 0 0 0 0 0 0 0 0 0 0 0 0 0 0 0 0 0 0 0 0 0 0 0 0
0 0 0 0 0 0 0 0 0 0 0 0 0 0 0 0 0 0 0 0 0 0 0 0 0 0 0 0 0 0 0 0 0 0 0 0 0 0 0 0 0 0 0 0
0 0 0 0 0 0 0 0 0 0 0 0 0 0 0 0 0 0 0 0 0 0 0 0 0 0 0 0 0 0 0 0 0 0 0 0 0 0 0 0 0 0 0 0
0 0 0 0 0 0 0 0 0 0 0 0 0 0 0 0 0 0 0 0 0 0 0 0 0 0 0 0 0 0 0 0 0 0 0 0 0 0 0 0 0 0 0 0
0 0 0 0 0 0 0 0 0 0 0 0 0 0 0 0 0 0 0 0 0 0 0 0 0 0 0 0 0 0 0 0 0 0 0 0 0 0 0 0 0 0 0 0
0 0 0 0 0 0 0 0 0 0 0 0 0 0 0 0 0 0 0 0 0 0 0 0 0 0 0 0 0 0 0 0 0 0 0 0 0 0 0 0 0 0 0 0
0 0 0 0 0 0 0 0 0 0 0 0 0 0 0 0 0 0 0 0 0 0 0 0 0 0 0 0 0 0 0 0 0 0 0 0 0 0 0 0 0 0 0 0
Height
5835 5838 5839 5839 5837 5838 5840 5840 5841 5840 5838 5838 5838 5839 5839 5838 5837 5836 5835 5835 5835 5834 5834 5833 5833 5832 5831 5831 5830 5829 5827 5826 5824 5823 5821 5819 5817 5814 5812 5810 5807 5804 5802 5799
5828 5830 5831 5829 5830 5830 5831 5832 5833 5831 5830 5830 5830 5831 5832 5831 5830 5829 5828 5828 5828 5827 5827 5827 5826 5825 5824 5824 5822 5821 5819 5818 5816 5814 5812 5809 5807 5804 5802 5799 5796 5793 5790 5787
5818 5821 5821 5822 5822 5822 5823 5824 5824 5822 5821 5821 5821 5823 5825 5824 5822 5822 5821 5821 5820 5820 5820 5819 5819 5818 5817 5816 5814 5813 5811 5809 5807 5804 5802 5799 5796 5793 5790 5787 5783 5780 5777 5773
5808 5811 5813 5813 5813 5813 5813 5815 5813 5812 5812 5811 5812 5811 5817 5816 5814 5814 5814 5813 5813 5813 5812 5812 5811 5810 5809 5807 5805 5803 5801 5799 5797 5794 5791 5788 5785 5782 5778 5774 5770 5766 5763 5759
5799 5802 5803 5803 5806 5804 5803 5804 5804 5803 5801 5801 5802 5802 5806 5808 5806 5805 5805 5805 5804 5804 5804 5803 5802 5801 5799 5797 5795 5793 5791 5789 5786 5783 5780 5776 5772 5768 5764 5760 5756 5752 5747 5743
5790 5792 5793 5794 5795 5795 5794 5794 5793 5791 5790 5790 5794 5792 5792 5798 5798 5797 5796 5796 5795 5795 5794 5794 5792 5790 5789 5787 5785 5782 5780 5777 5773 5770 5766 5762 5758 5754 5749 5745 5740 5736 5731 5726
5780 5781 5782 5783 5784 5784 5784 5784 5782 5780 5779 5780 5783 5781 5783 5786 5787 5787 5787 5786 5785 5785 5784 5783 5781 5779 5777 5775 5773 5770 5767 5763 5760 5756 5752 5747 5743 5738 5733 5728 5724 5719 5714 5709
5768 5769 5771 5772 5772 5772 5772 5772 5772 5771 5770 5770 5770 5770 5774 5774 5775 5775 5775 5775 5775 5774 5773 5771 5769 5767 5765 5762 5759 5756 5753 5749 5745 5741 5736 5731 5727 5722 5717 5711 5706 5701 5696 5690
5755 5756 5757 5759 5760 5760 5759 5759 5761 5760 5758 5758 5758 5760 5763 5763 5763 5763 5763 5763 5763 5762 5760 5758 5755 5753 5750 5748 5745 5741 5737 5733 5729 5725 5720 5715 5710 5705 5700 5694 5688 5682 5677 5671
5741 5741 5742 5744 5746 5746 5748 5749 5748 5747 5747 5746 5747 5749 5751 5752 5751 5751 5752 5751 5750 5748 5746 5743 5741 5738 5736 5733 5730 5726 5722 5718 5714 5709 5704 5698 5693 5687 5682 5676 5669 5664 5658 5652
5727 5728 5728 5730 5732 5735 5736 5736 5736 5736 5737 5737 5737 5740 5740 5739 5739 5740 5740 5739 5737 5734 5732 5729 5726 5724 5721 5718 5714 5710 5706 5702 5697 5692 5687 5681 5675 5669 5663 5657 5651 5645 5639 5633
5713 5713 5713 5717 5719 5720 5721 5722 5724 5726 5727 5727 5726 5728 5726 5727 5727 5728 5727 5725 5722 5720 5717 5714 5711 5709 5706 5702 5698 5694 5690 5685 5680 5675 5669 5662 5656 5650 5643 5637 5632 5626 5620 5614
5700 5699 5700 5701 5705 5707 5708 5712 5714 5715 5715 5713 5712 5716 5714 5715 5715 5714 5712 5710 5707 5704 5701 5699 5696 5694 5690 5686 5682 5677 5672 5667 5662 5656 5650 5644 5637 5630 5624 5618 5612 5606 5601 5594
5684 5684 5688 5691 5693 5696 5697 5699 5700 5700 5698 5699 5701 5704 5703 5701 5700 5699 5697 5694 5691 5689 5686 5684 5682 5678 5674 5670 5665 5660 5655 5649 5644 5638 5632 5625 5618 5611 5605 5599 5593 5587 5581 5574
5669 5671 5675 5678 5680 5681 5682 5685 5685 5684 5685 5686 5689 5690 5690 5688 5686 5683 5680 5678 5675 5673 5671 5669 5665 5661 5657 5653 5648 5642 5637 5631 5625 5620 5613 5606 5599 5592 5586 5580 5574 5567 5561 5554
5654 5657 5660 5662 5664 5664 5665 5668 5668 5668 5670 5670 5673 5675 5677 5673 5669 5666 5664 5662 5660 5658 5656 5652 5649 5645 5640 5635 5630 5625 5618 5612 5606 5601 5595 5587 5580 5574 5568 5561 5554 5548 5541 5533
5639 5642 5644 5645 5647 5644 5646 5652 5652 5653 5655 5657 5656 5662 5659 5656 5652 5651 5648 5645 5645 5642 5639 5636 5632 5628 5623 5618 5612 5606 5600 5594 5588 5582 5576 5569 5562 5556 5549 5542 5535 5527 5519 5512
5625 5627 5627 5627 5628 5623 5633 5637 5637 5637 5639 5640 5640 5642 5640 5638 5636 5634 5632 5630 5628 5625 5622 5619 5614 5610 5604 5599 5593 5588 5582 5575 5569 5564 5557 5550 5544 5537 5530 5522 5514 5506 5498 5491
5609 5611 5610 5609 5607 5608 5615 5620 5621 5621 5623 5625 5623 5622 5621 5620 5618 5619 5617 5614 5611 5608 5604 5600 5596 5591 5585 5580 5575 5569 5564 5557 5551 5546 5539 5532 5525 5517 5510 5502 5494 5486 5479 5473
5591 5593 5594 5592 5590 5592 5603 5606 5605 5603 5602 5608 5606 5604 5602 5602 5602 5605 5600 5597 5594 5590 5586 5582 5577 5572 5566 5561 5556 5552 5546 5540 5533 5526 5520 5512 5505 5497 5490 5483 5475 5469 5462 5456
5574 5575 5575 5575 5574 5577 5585 5587 5586 5585 5588 5589 5587 5586 5586 5585 5585 5586 5583 5579 5575 5572 5567 5563 5558 5553 5547 5543 5539 5534 5527 5521 5514 5507 5500 5493 5486 5479 5472 5465 5458 5452 5447 5441
5558 5559 5560 5560 5559 5565 5568 5568 5568 5565 5566 5568 5569 5569 5569 5569 5567 5566 5564 5560 5557 5552 5548 5544 5539 5535 5529 5525 5520 5515 5509 5502 5494 5488 5482 5475 5468 5461 5455 5449 5443 5437 5432 5426
5542 5545 5546 5547 5548 5549 5549 5548 5546 5546 5548 5550 5552 5553 5553 5551 5548 5546 5544 5541 5537 5533 5528 5524 5521 5517 5511 5505 5500 5496 5490 5482 5476 5470 5463 5457 5451 5445 5439 5434 5428 5422 5417 5411
5526 5529 5530 5530 5530 5530 5528 5526 5525 5527 5530 5532 5535 5536 5535 5533 5530 5528 5525 5521 5518 5514 5509 5506 5502 5498 5493 5486 5481 5476 5471 5464 5458 5453 5447 5440 5435 5429 5424 5419 5413 5408 5402 5396
5512 5513 5513 5512 5511 5508 5506 5505 5506 5509 5512 5515 5516 5517 5516 5515 5512 5509 5506 5502 5498 5494 5490 5486 5482 5479 5474 5467 5463 5458 5453 5447 5441 5436 5430 5425 5419 5414 5409 5404 5398 5392 5387 5380
5500 5499 5497 5493 5490 5488 5487 5488 5490 5492 5494 5495 5496 5498 5497 5495 5493 5490 5487 5483 5479 5475 5471 5466 5462 5458 5455 5450 5446 5441 5436 5430 5425 5420 5414 5409 5404 5399 5394 5388 5383 5376 5370 5364
Wind_Speed
36 35 31 32 35 34 30 28 27 28 30 30 29 28 28 28 27 28 28 28 27 26 26 25 24 24 24 24 25 25 27 28 30 32 33 35 37 39 41 43 45 47 49 51
37 34 33 35 34 33 31 30 29 31 33 33 32 31 29 29 29 29 29 28 28 27 27 27 26 26 26 27 28 30 31 33 34 36 38 40 41 43 45 47 49 51 53 55
37 35 34 34 33 33 33 32 33 35 35 35 35 33 30 30 30 29 29 29 29 29 28 28 28 28 29 31 32 34 35 37 39 41 43 44 46 48 50 52 54 56 58 59
38 35 34 35 34 34 35 35 37 37 38 38 37 37 29 29 30 30 30 30 30 30 29 29 30 31 33 34 36 38 40 42 44 46 47 49 51 53 54 56 59 60 62 64
37 35 36 36 35 37 38 38 39 39 40 41 38 39 33 29 30 31 31 31 31 31 31 32 33 35 36 38 40 42 44 46 48 50 52 54 55 57 59 61 63 65 66 67
38 37 38 38 38 40 41 41 41 42 43 44 38 39 39 31 30 31 31 31 32 32 33 34 36 38 40 42 44 46 48 50 52 54 56 58 60 61 63 64 66 67 69 70
39 41 41 42 43 43 43 44 45 45 45 44 40 41 40 35 32 31 31 32 33 34 35 37 39 41 43 46 48 50 52 54 56 58 59 61 62 64 65 67 68 69 71 72
46 47 46 47 46 47 46 46 46 46 46 45 43 43 40 37 34 33 33 34 34 36 38 40 43 45 47 50 52 54 56 57 59 60 62 64 65 67 68 70 71 72 73 74
50 52 51 50 49 48 48 48 45 46 47 47 46 43 40 37 36 37 37 36 37 39 41 44 47 50 52 54 55 57 58 60 61 63 65 66 68 70 72 73 74 75 75 74
55 56 55 53 51 50 49 47 46 47 48 48 47 44 41 39 40 40 40 39 41 43 46 49 52 54 55 57 58 59 61 62 64 66 67 69 71 73 74 75 76 75 75 74
57 57 56 54 51 47 47 47 47 48 49 49 47 45 44 44 44 43 43 43 45 48 51 53 55 57 58 58 60 61 63 65 67 68 70 72 73 75 76 76 76 75 75 74
54 55 56 53 50 48 49 49 48 49 48 47 47 49 49 48 47 46 46 48 51 53 55 57 58 58 59 60 62 64 66 68 70 72 73 75 76 77 77 77 76 75 75 75
49 50 51 52 51 49 48 46 46 47 48 51 51 52 51 50 49 49 51 53 55 57 58 59 60 60 61 63 65 67 69 71 73 75 76 77 77 78 78 77 76 75 76 76
48 50 50 50 48 46 46 47 47 50 53 54 52 52 52 53 54 55 57 58 60 60 61 61 61 62 64 65 67 69 71 73 75 76 77 78 78 78 77 76 76 77 78 79
51 51 50 48 49 51 52 53 53 56 56 57 55 55 55 55 56 59 61 62 62 62 62 62 63 64 66 68 70 72 74 75 77 78 78 77 77 77 76 77 78 79 80 80
53 53 53 54 54 56 58 58 60 61 60 60 58 58 56 56 59 61 61 63 63 63 63 64 64 66 68 70 72 74 75 77 77 77 76 76 76 76 77 78 79 80 81 81
57 57 57 59 59 62 64 62 64 63 62 61 61 58 58 60 61 62 63 64 63 63 64 65 66 68 70 72 73 74 75 76 75 74 74 74 75 77 78 79 80 80 80 80
60 60 61 63 65 70 67 65 65 65 63 62 62 61 61 61 62 63 63 63 63 64 65 67 68 69 71 72 73 73 73 73 72 72 73 74 76 77 79 79 79 78 77 75
62 62 64 67 70 73 71 70 68 65 64 63 63 61 61 63 64 64 63 64 65 66 67 68 69 71 71 71 71 70 70 70 71 72 73 75 76 77 77 76 75 73 70 67
66 67 68 71 73 75 72 70 68 68 68 64 62 62 64 65 65 64 65 66 66 67 68 69 70 70 69 69 68 68 68 69 71 72 74 74 74 73 72 71 68 65 62 61
67 68 70 72 73 74 71 70 68 68 67 65 65 65 65 65 66 66 66 67 68 68 68 68 68 67 67 67 67 67 69 70 71 72 71 70 69 68 67 64 61 59 59 59
65 65 67 68 69 69 66 65 65 65 66 66 66 67 67 66 67 67 68 68 67 66 66 66 66 66 66 67 68 69 69 68 68 67 66 65 64 63 61 59 57 57 57 57
61 62 62 63 64 63 63 63 64 65 65 66 67 67 67 67 68 68 68 66 65 65 65 65 65 66 67 67 67 66 65 64 63 63 63 62 60 59 57 56 56 56 56 57
58 58 59 61 61 62 62 63 65 66 66 66 66 66 67 67 67 66 64 63 63 63 64 65 65 65 65 65 64 62 61 61 61 60 59 58 57 56 56 55 56 56 57 58
57 58 59 61 62 63 65 66 67 67 67 67 67 67 66 64 63 61 61 61 62 63 64 65 64 63 61 61 60 59 59 59 59 58 57 56 56 56 56 56 56 57 58 60
57 58 59 62 64 66 67 67 67 66 66 65 65 63 62 60 59 59 60 61 63 63 63 62 61 59 58 57 57 58 58 57 57 56 56 56 56 57 57 58 58 59 61 62
Wind_Direction
266 266 267 264 264 266 267 266 263 262 263 265 269 272 275 277 276 273 271 270 271 272 273 274 276 278 279 281 283 285 285 286 286 287 287 288 288 288 288 288 288 288 287 286
263 264 262 262 264 266 265 264 263 262 263 266 268 270 273 274 272 270 269 269 269 270 273 274 276 278 280 282 284 285 286 287 287 287 287 287 287 287 287 287 286 286 285 285
261 260 259 261 261 263 263 265 264 264 264 267 270 270 272 272 269 268 267 267 268 270 272 274 276 279 281 283 285 286 286 287 287 287 286 286 286 286 285 285 284 284 284 283
259 259 259 259 260 262 263 264 264 266 267 268 269 271 268 268 268 268 267 268 269 271 273 275 278 281 283 284 285 286 287 287 288 288 288 287 287 286 286 285 284 283 283 283
258 259 259 260 262 263 265 266 267 267 267 267 268 271 270 265 266 267 268 269 270 272 275 277 280 282 284 285 285 286 287 288 288 288 288 287 287 286 286 285 284 284 284 284
259 260 261 263 263 264 266 267 267 266 266 267 269 270 271 268 265 266 267 269 271 274 277 279 282 283 285 286 287 288 289 289 289 288 288 287 287 287 287 286 286 286 286 286
260 261 264 266 266 266 267 267 266 265 265 267 268 266 271 272 268 267 268 270 272 276 279 280 282 284 285 286 288 289 290 290 289 289 289 289 289 289 289 289 288 288 287 287
263 263 264 266 268 267 265 263 262 263 264 265 265 265 269 271 273 273 272 273 275 278 280 282 283 285 287 289 290 291 291 291 291 290 290 290 290 290 290 289 289 288 288 288
265 265 264 265 267 266 264 263 263 262 263 264 265 268 270 273 275 275 276 279 281 282 284 285 286 288 290 291 292 292 291 291 291 291 291 291 291 291 290 290 290 289 289 289
264 265 264 265 265 263 262 261 258 258 261 264 266 269 272 274 273 276 279 282 284 285 286 287 288 290 291 291 292 292 292 292 291 291 291 291 291 291 291 291 291 291 291 290
263 264 264 264 264 264 260 258 257 258 259 263 269 272 272 273 275 278 282 284 284 285 286 287 288 289 290 291 292 292 292 292 292 293 293 293 292 292 292 292 292 292 291 290
259 261 262 262 260 257 255 255 256 258 263 267 269 269 271 274 278 281 283 282 283 284 285 286 287 289 290 291 292 292 293 294 294 294 294 294 294 293 293 293 292 292 291 291
255 257 258 258 256 257 259 261 262 263 263 264 266 270 275 279 281 281 281 281 282 283 284 285 287 289 290 291 292 293 294 295 295 295 295 294 294 293 293 293 293 292 292 292
253 254 255 258 262 262 261 260 260 260 262 266 269 273 276 277 278 279 280 280 281 282 283 285 287 289 291 292 293 294 294 295 295 295 294 294 293 293 293 293 293 293 294 294
254 256 258 259 260 261 261 261 262 263 265 267 271 272 274 274 275 275 276 278 280 282 284 286 287 290 291 293 293 294 294 294 294 294 293 293 293 293 293 294 294 294 295 295
259 261 262 262 262 262 262 263 263 264 266 270 273 275 275 273 272 273 275 276 278 281 283 285 288 290 291 292 293 293 293 293 293 293 293 293 293 293 294 294 294 295 295 295
262 263 263 264 264 264 263 264 266 268 270 271 272 274 272 270 270 272 274 276 279 281 284 286 288 290 291 291 292 292 292 292 292 293 293 293 293 294 294 295 295 296 296 295
259 261 262 262 262 261 266 267 266 267 268 270 271 270 269 270 271 272 275 278 280 282 285 287 289 289 290 290 290 290 291 292 292 292 293 293 293 294 295 296 296 296 296 296
256 256 256 257 258 261 264 266 266 266 267 267 267 268 268 269 271 273 277 279 281 284 286 288 288 289 289 289 290 290 291 291 292 292 293 293 294 295 296 296 296 296 296 296
255 254 253 254 254 257 263 264 264 264 264 266 266 267 268 270 273 276 278 281 283 285 287 288 289 289 288 289 289 290 291 291 292 293 294 295 296 296 297 297 297 297 297 297
255 255 254 255 256 258 261 262 262 262 265 264 265 267 270 272 275 278 280 283 285 286 287 288 288 288 288 288 289 290 291 293 293 294 296 297 297 297 297 297 297 297 297 298
252 253 253 255 256 258 261 261 261 263 264 265 267 269 272 275 277 280 282 284 286 287 287 287 287 287 288 289 290 291 293 293 295 296 297 297 298 297 297 297 297 297 298 299
250 251 252 254 257 259 259 261 262 263 265 267 269 272 275 278 280 282 284 286 287 287 286 286 287 288 289 290 291 293 294 294 296 296 297 298 298 298 297 297 298 298 299 299
249 250 252 254 256 258 260 261 262 264 266 269 272 274 277 279 281 284 285 286 285 285 285 286 287 289 290 291 292 293 294 295 296 297 297 297 297 297 297 297 298 299 300 301
250 252 254 256 258 260 261 262 264 266 269 272 274 277 279 281 283 284 284 284 284 285 286 287 289 290 290 291 293 294 295 295 296 296 296 296 295 296 296 297 299 300 301 303
254 257 259 260 261 262 264 266 269 271 274 276 278 280 282 283 283 282 282 283 285 286 287 289 290 290 291 291 292 293 294 295 295 295 294 294 294 295 296 297 299 301 302 304